This is the latest recevied weather packets stored in our database for station/object WA3NOA-2. If no packets are shown the sender has not sent any weather packets the latest 10 day(s).
| Time | Temp. | Humidity | Pressure | Rain* | Wind** | Luminosity | Snow |
|---|---|---|---|---|---|---|---|
| 1778240826 | 10.56° C | 74% | 1007.7 hPa | 0 mm | - | - | - |
| 1778240526 | 10° C | 75% | 1007.7 hPa | 0 mm | - | - | - |
| 1778240226 | 9.44° C | 77% | 1007.6 hPa | 0 mm | - | - | - |
| 1778239987 | 8.89° C | 81% | 1007.5 hPa | 0 mm | - | - | - |
| 1778239926 | 8.33° C | 81% | 1007.5 hPa | 0 mm | - | - | - |
| 1778239626 | 8.33° C | 81% | 1007.3 hPa | 0 mm | - | - | - |
| 1778239326 | 7.78° C | 83% | 1007.5 hPa | 0 mm | - | - | - |
| 1778239087 | 7.78° C | 83% | 1007.5 hPa | 0 mm | - | - | - |
| 1778239026 | 7.78° C | 84% | 1007.6 hPa | 0 mm | - | - | - |
| 1778238726 | 7.22° C | 85% | 1007.7 hPa | 0 mm | - | - | - |
| 1778238426 | 6.67° C | 85% | 1007.5 hPa | 0 mm | - | - | - |
| 1778238188 | 6.67° C | 85% | 1007.6 hPa | 0 mm | - | - | - |
| 1778238126 | 6.67° C | 85% | 1007.6 hPa | 0 mm | - | - | - |
| 1778237826 | 6.11° C | 86% | 1007.5 hPa | 0 mm | - | - | - |
| 1778237526 | 6.67° C | 86% | 1007.5 hPa | 0 mm | - | - | - |
| 1778237287 | 6.11° C | 88% | 1007.4 hPa | 0 mm | - | - | - |
| 1778237226 | 6.11° C | 88% | 1007.5 hPa | 0 mm | - | - | - |
| 1778236926 | 5.56° C | 89% | 1007.4 hPa | 0 mm | - | - | - |
| 1778236626 | 5.56° C | 88% | 1007.4 hPa | 0 mm | - | - | - |
| 1778236387 | 5.56° C | 88% | 1007.4 hPa | 0 mm | - | - | - |
| 1778236326 | 5.56° C | 88% | 1007.4 hPa | 0 mm | - | - | - |
| 1778236026 | 5° C | 83% | 1007.3 hPa | 0 mm | - | - | - |
| 1778235726 | 5° C | 83% | 1007.3 hPa | 0 mm | - | - | - |
| 1778235488 | 5° C | 83% | 1007.3 hPa | 0 mm | - | - | - |
| 1778235426 | 5° C | 83% | 1007.2 hPa | 0 mm | - | - | - |
* Rain latest hour (hover to see other rain measurements)
** Current wind speed in m/s (hover to see current wind gust speed)